Weather History for KAIA - March, 2013

Change the Weather History Date:

Saturday, March 9, 2013

  Actual Average Record
Temperature  
Mean Temperature 32 °F 34 °F  
Max Temperature 39 °F 49 °F 75 °F (1972)
Min Temperature 25 °F 20 °F -13 °F (2002)
Degree Days  
Heating Degree Days 33 31  
Month to date heating degree days 256 290  
Since 1 July heating degree days 5369 5694  
Cooling Degree Days 0 0  
Month to date cooling degree days 0 0  
Year to date cooling degree days 0 0  
Moisture  
Dew Point 26 °F    
Average Humidity 70    
Maximum Humidity 92    
Minimum Humidity 47    
Precipitation  
Precipitation T in 0.01 in 0.39 in (1943)
Month to date precipitation T 0.09  
Year to date precipitation 0.52 0.65  
Sea Level Pressure  
Sea Level Pressure 29.77 in    
Wind  
Wind Speed 22 mph (North)    
Max Wind Speed 38 mph    
Max Gust Speed 47 mph    
Visibility 4 miles    
Events Snow    
T = Trace of Precipitation, MM = Missing Value Source: NWS Daily Summary

Daily Weather History Graph

Daily Weather History Graph

Search for Another Location

Airport or City:

Trip Planner

Search our weather history database for the weather conditions in past years. The results will help you decide how hot, cold, wet, or windy it might be!

Date:

Astronomy

Mar. 09, 2013 Rise Set
Actual Time 6:12 AM MST 5:51 PM MST
Civil Twilight 5:44 AM MST 6:19 PM MST
Nautical Twilight 5:12 AM MST 6:51 PM MST
Astronomical Twilight 4:39 AM MST 7:24 PM MST
Moon 4:39 AM MST (3/9) 3:54 PM MST (3/9)
Length of Visible Light 12h 34m
Length of Day
11h 38m
Waning Crescent, 5% of the Moon is Illuminated
Mar 9
Waning Crescent
Mar 11
New
Mar 19
First Quarter
Mar 27
Full
Apr 2
Last Quarter

Hourly Weather History & Observations

Time (MST) Temp. Windchill Dew Point Humidity Pressure Visibility Wind Dir Wind Speed Gust Speed Precip Events Conditions
12:53 AM 30.0 °F 20.5 °F 27.0 °F 88% 29.73 in 6.0 mi North 11.5 mph - N/A   Mostly Cloudy
1:53 AM 30.0 °F 20.0 °F 27.0 °F 88% 29.70 in 5.0 mi North 12.7 mph - N/A   Overcast
2:04 AM 30.2 °F 20.8 °F 26.6 °F 86% 29.69 in 5.0 mi North 11.5 mph - N/A   Overcast
2:44 AM 30.2 °F 18.5 °F 28.4 °F 93% 29.66 in 6.0 mi North 17.3 mph - N/A   Overcast
2:53 AM 30.9 °F 20.2 °F 28.0 °F 89% 29.65 in 6.0 mi North 15.0 mph - N/A   Overcast
3:02 AM 30.2 °F 18.9 °F 26.6 °F 86% 29.64 in 6.0 mi North 16.1 mph - N/A   Overcast
3:30 AM 30.2 °F 18.9 °F 26.6 °F 86% 29.66 in 6.0 mi North 16.1 mph - N/A   Overcast
3:53 AM 30.9 °F 20.7 °F 28.0 °F 89% 29.68 in 7.0 mi North 13.8 mph - N/A   Overcast
4:18 AM 30.2 °F 19.8 °F 26.6 °F 86% 29.69 in 7.0 mi North 13.8 mph - N/A   Overcast
4:27 AM 30.2 °F 19.3 °F 26.6 °F 86% 29.69 in 7.0 mi North 15.0 mph - N/A   Overcast
4:53 AM 30.0 °F 18.3 °F 27.0 °F 88% 29.71 in 2.5 mi North 17.3 mph - 0.00 in Snow Light Snow
5:07 AM 28.4 °F 15.8 °F 26.6 °F 93% 29.69 in 1.5 mi North 18.4 mph 24.2 mph 0.00 in Snow Light Snow
5:14 AM 28.4 °F 14.7 °F 26.6 °F 93% 29.68 in 1.5 mi North 21.9 mph 26.5 mph 0.00 in Snow Light Snow
5:22 AM 28.4 °F 15.1 °F 26.6 °F 93% 29.68 in 1.2 mi North 20.7 mph - 0.00 in Snow Light Snow
5:32 AM 28.4 °F 16.2 °F 26.6 °F 93% 29.69 in 1.8 mi North 17.3 mph - 0.00 in Snow Light Snow
5:40 AM 28.4 °F 15.8 °F 26.6 °F 93% 29.68 in 2.5 mi North 18.4 mph - 0.00 in Snow Light Snow
5:53 AM 28.9 °F 17.3 °F 27.0 °F 92% 29.72 in 3.0 mi North 16.1 mph 24.2 mph 0.00 in Snow Light Snow
6:53 AM 28.9 °F 16.9 °F 26.1 °F 89% 29.74 in 4.0 mi North 17.3 mph - 0.00 in   Overcast
7:53 AM 28.9 °F 16.9 °F 26.1 °F 89% 29.77 in 4.0 mi North 17.3 mph 24.2 mph 0.00 in   Overcast
8:30 AM 28.4 °F 16.2 °F 26.6 °F 93% 29.72 in 2.5 mi North 17.3 mph 25.3 mph 0.00 in Snow Light Snow
8:46 AM 28.4 °F 15.8 °F 26.6 °F 93% 29.72 in 1.5 mi North 18.4 mph 29.9 mph 0.00 in Snow Light Snow
8:49 AM 28.4 °F 14.7 °F 26.6 °F 93% 29.72 in 1.2 mi North 21.9 mph 29.9 mph 0.00 in Snow Light Snow
8:51 AM 28.4 °F 15.1 °F 26.6 °F 93% 29.72 in 1.0 mi North 20.7 mph 28.8 mph 0.00 in Snow Light Snow
8:53 AM 28.9 °F 16.9 °F 26.1 °F 89% 29.78 in 1.0 mi North 17.3 mph 28.8 mph 0.00 in Snow Light Snow
9:02 AM 28.4 °F 14.7 °F 26.6 °F 93% 29.72 in 0.8 mi North 21.9 mph 28.8 mph 0.00 in Snow Light Snow
9:11 AM 28.4 °F 14.4 °F 26.6 °F 93% 29.72 in 0.8 mi North 23.0 mph 32.2 mph 0.00 in Snow Light Snow
9:26 AM 28.4 °F 14.1 °F 26.6 °F 93% 29.72 in 1.0 mi North 24.2 mph 35.7 mph 0.00 in Snow Light Snow
9:40 AM 28.4 °F 13.5 °F 26.6 °F 93% 29.72 in 0.8 mi North 26.5 mph 32.2 mph 0.00 in Snow Light Snow
9:46 AM 28.4 °F 13.3 °F 26.6 °F 93% 29.72 in 1.0 mi North 27.6 mph 34.5 mph 0.00 in Snow Light Snow
9:53 AM 28.9 °F 14.8 °F 26.1 °F 89% 29.79 in 1.0 mi North 24.2 mph 34.5 mph 0.00 in Snow Light Snow
10:02 AM 28.4 °F 14.7 °F 26.6 °F 93% 29.73 in 1.0 mi North 21.9 mph 32.2 mph 0.00 in Snow Light Snow
10:21 AM 28.4 °F 14.4 °F 26.6 °F 93% 29.73 in 1.2 mi North 23.0 mph 32.2 mph 0.00 in Snow Light Snow
10:27 AM 30.2 °F 16.5 °F 26.6 °F 86% 29.73 in 1.5 mi North 24.2 mph 32.2 mph 0.00 in Snow Light Snow
10:42 AM 30.2 °F 17.1 °F 26.6 °F 86% 29.73 in 1.2 mi North 21.9 mph 31.1 mph 0.00 in Snow Light Snow
10:47 AM 30.2 °F 16.2 °F 26.6 °F 86% 29.73 in 1.5 mi North 25.3 mph 36.8 mph 0.00 in Snow Light Snow
10:53 AM 30.0 °F 16.3 °F 26.1 °F 85% 29.80 in 1.5 mi North 24.2 mph 36.8 mph 0.00 in Snow Light Snow
11:00 AM 30.2 °F 16.2 °F 26.6 °F 86% 29.74 in 1.5 mi North 25.3 mph 36.8 mph 0.00 in Snow Light Snow
11:05 AM 30.2 °F 16.2 °F 26.6 °F 86% 29.74 in 1.2 mi North 25.3 mph 36.8 mph 0.00 in Snow Light Snow
11:36 AM 30.2 °F 16.8 °F 26.6 °F 86% 29.74 in 1.0 mi North 23.0 mph 31.1 mph 0.00 in Snow Light Snow
11:46 AM 30.2 °F 17.1 °F 28.4 °F 93% 29.75 in 0.8 mi North 21.9 mph 33.4 mph 0.00 in Snow Light Snow
11:53 AM 30.9 °F 16.7 °F 28.0 °F 89% 29.81 in 0.8 mi North 27.6 mph 38.0 mph 0.00 in Snow Light Snow
12:24 PM 30.2 °F 15.4 °F 28.4 °F 93% 29.75 in 0.8 mi North 28.8 mph 34.5 mph 0.00 in Snow Light Snow
12:34 PM 32.0 °F 20.1 °F 28.4 °F 87% 29.75 in 1.2 mi North 19.6 mph 32.2 mph 0.00 in Snow Light Snow
12:38 PM 32.0 °F 19.5 °F 28.4 °F 87% 29.75 in 2.0 mi North 21.9 mph 32.2 mph 0.00 in Snow Light Snow
12:46 PM 32.0 °F 18.4 °F 28.4 °F 87% 29.75 in 8.0 mi North 26.5 mph 32.2 mph 0.00 in   Overcast
12:53 PM 33.1 °F 19.3 °F 28.0 °F 82% 29.81 in 10.0 mi North 28.8 mph 35.7 mph 0.00 in   Overcast
1:22 PM 33.8 °F 20.5 °F 28.4 °F 81% 29.75 in 10.0 mi North 27.6 mph 39.1 mph N/A   Scattered Clouds
1:53 PM 34.0 °F 21.0 °F 28.0 °F 79% 29.81 in 10.0 mi North 26.5 mph 33.4 mph N/A   Mostly Cloudy
2:53 PM 36.0 °F 23.5 °F 28.0 °F 73% 29.82 in 10.0 mi North 27.6 mph 39.1 mph N/A   Scattered Clouds
3:53 PM 37.9 °F 26.1 °F 27.0 °F 65% 29.84 in 10.0 mi North 27.6 mph 36.8 mph N/A   Clear
4:53 PM 37.9 °F 24.9 °F 21.9 °F 53% 29.86 in 10.0 mi North 34.5 mph 44.9 mph N/A   Clear
5:53 PM 35.1 °F 22.0 °F 21.0 °F 57% 29.91 in 10.0 mi North 28.8 mph 41.4 mph N/A   Clear
6:53 PM 33.1 °F 19.1 °F 15.1 °F 48% 29.98 in 10.0 mi North 29.9 mph 38.0 mph N/A   Clear
7:53 PM 30.9 °F 18.1 °F 15.1 °F 52% 30.03 in 10.0 mi North 21.9 mph 33.4 mph N/A   Clear
8:53 PM 30.0 °F 16.3 °F 16.0 °F 56% 30.06 in 10.0 mi North 24.2 mph 33.4 mph N/A   Clear
9:53 PM 28.0 °F 14.3 °F 15.1 °F 58% 30.09 in 10.0 mi North 21.9 mph 28.8 mph N/A   Clear
10:53 PM 26.1 °F 12.7 °F 15.1 °F 63% 30.11 in 10.0 mi NNE 18.4 mph - N/A   Partly Cloudy
11:53 PM 25.0 °F 13.1 °F 16.0 °F 69% 30.12 in 10.0 mi North 13.8 mph - N/A   Scattered Clouds